Home   Weather   Bloemfontein   Past weeks

Flag for South Africa Past Weather in Bloemfontein, South Africa — Yesterday and Last 2 Weeks

Now
68 °F

Mild.


Feels Like: 68 °F
Forecast: 58 / 89 °F
Wind: 6 mph from North

Location: Bloemfontein Airport

Current Time: Jan 19, 2017 at 11:58:34 pm

Latest Report: Jan 19, 2017 at 11:00 pm


Visibility: N/A

Pressure: 30.01 "Hg (25.50 "Hg at 1397m altitude)

Humidity: 64%

Dew Point: 55 °F

Location of BloemfonteinLocation

Past Weather in Bloemfontein — Graph

°F

Bloemfontein Temperature Yesterday

Maximum temperature yesterday: 82 °F (at 5:00 pm)
Minimum temperature yesterday: 54 °F (at 6:00 am)
Average temperature yesterday: 69 °F

High & Low Weather Summary for the Past Weeks

 TemperatureHumidityPressure
High88 °F (Jan 19, 4:00 pm)100% (Jan 5, 10:00 am)30.21 "Hg (Jan 5, 10:00 am)
Low54 °F (Jan 18, 6:00 am)24% (Jan 14, 5:00 pm)29.92 "Hg (Jan 14, 4:00 pm)
Average69 °F71%30.06 "Hg
* Reported Jan 4 10:00 pm — Jan 19 10:00 pm, Bloemfontein, Weather by CustomWeather, © 2017

Note: Actual official high and low records may vary slightly from our data, if they occured in-between our weather recording intervals... More about our weather records

Advertising

Bloemfontein Weather History for the Previous 24 Hours

Scroll right to see more
 ConditionsComfort  
Time TempWeatherWind HumidityBarometerVisibility
10:00 pm
Thu, Jan 19
72 °FMild.12 mph50%30.01 "HgN/A
9:00 pm72 °FThundershowers. Overcast.6 mph53%30.07 "HgN/A
8:10 pm68 °FThunderstorms. Overcast.10 mph73%30.01 "HgN/A
8:00 pm68 °FThunderstorms. Passing clouds.12 mph64%30.01 "HgN/A
7:00 pm81 °FThunderstorms. Scattered clouds.9 mph39%29.95 "HgN/A
6:40 pm81 °FThunderstorms. Passing clouds.7 mph39%29.95 "HgN/A
6:00 pm82 °FPassing clouds.8 mph37%29.95 "HgN/A
5:00 pm88 °FPassing clouds.7 mph25%29.95 "HgN/A
4:00 pm88 °FPassing clouds.7 mph29%29.98 "HgN/A
3:00 pm86 °FSunny.6 mph33%30.01 "Hg10 mi
2:00 pm86 °FSunny.3 mph25%30.01 "Hg10 mi
1:00 pm84 °FPassing clouds.8 mph31%30.04 "HgN/A
12:00 pm82 °FPassing clouds.7 mph37%30.07 "HgN/A
11:00 am82 °FSunny.7 mph32%30.09 "Hg10 mi
10:00 am77 °FPassing clouds.8 mph44%30.09 "HgN/A
9:00 am75 °FPassing clouds.5 mph47%30.09 "HgN/A
8:00 am70 °FSunny.6 mph60%30.12 "Hg10 mi
7:00 am63 °FSunny.5 mph77%30.12 "Hg10 mi
6:00 am61 °FSunny.2 mph77%30.09 "Hg10 mi
5:00 am61 °FCool.5 mph77%30.09 "HgN/A
4:00 am61 °FCool.3 mph77%30.07 "HgN/A
3:00 am63 °FMild.2 mph68%30.07 "HgN/A
2:00 am61 °FCool.2 mph77%30.09 "HgN/A
1:00 am66 °FMild.5 mph60%30.09 "HgN/A
12:00 am66 °FMild.7 mph60%30.09 "HgN/A
11:00 pm
Wed, Jan 18
68 °FMild.5 mph56%30.12 "HgN/A
Weather by CustomWeather, © 2017

See weather overviewHow to use our weather pages